Location: Castelnau
(43.6639°N, 0.8431°W)
Time: 21:21:27
(UTC+00:00)

BREEZE-M DEB (TANK) - Pass Details

Date: 13 January 2026
Orbit: 290 x 14651 km, 49.5° (Epoch: 10 February)

Event Time Altitude Azimuth Distance (km) Brightness Sun altitude
Exits shadow 06:40:18 11° 294° (WNW) 3,999 6.0 -9.8°
Maximum altitude 06:46:51 27° 242° (WSW) 1,498 4.2 -8.7°
Drops below altitude 10° 06:49:50 10° 181° (S) 1,686 5.1 -8.2°
Sets 06:51:24 0° 165° (SSE) 2,261 6.0 -7.9°
